Theta_e
301 301 301 301 301 299 298 298 299 299 297 296 297 297 297 296 297 302 308 308 307 307 309 311 311 311 312 316 319 319 323 323 323 322 322 323 323 324 325 325 333 329 329 325 328 330 330 342 342 348 336 334 344 337
301 301 300 300 301 300 298 298 298 298 297 296 296 296 296 296 297 304 310 309 308 310 307 308 309 307 309 312 315 315 320 322 329 329 325 326 323 324 327 329 330 330 328 327 325 327 348 347 347 347 348 348 348 347
302 302 301 301 300 300 298 298 298 298 297 296 296 296 296 296 297 298 305 308 309 311 313 313 310 311 310 308 310 314 318 317 318 321 327 328 330 326 329 333 332 332 334 332 334 339 339 341 342 344 346 347 347 348
300 300 300 301 301 300 298 298 298 298 298 296 296 296 296 296 297 298 299 308 310 310 312 315 315 314 314 312 309 310 312 313 316 318 323 324 325 325 324 329 329 331 334 337 340 337 338 334 332 335 341 343 345 345
300 300 300 301 300 300 298 297 298 298 298 296 296 296 296 296 299 299 304 309 310 310 312 313 315 314 314 312 312 310 310 312 314 318 320 320 320 323 324 325 329 327 333 336 337 334 338 338 335 328 339 342 343 344
297 300 300 300 300 299 298 297 298 298 297 296 295 296 296 296 300 311 312 310 310 310 312 315 316 314 314 313 312 311 311 313 314 315 316 318 318 322 324 326 330 329 330 332 332 330 329 334 337 335 338 339 341 340
298 299 300 298 298 297 297 297 297 297 296 295 295 296 295 299 300 307 312 312 310 308 312 315 317 316 315 313 312 311 313 314 314 314 314 316 317 320 322 322 326 327 328 327 327 326 329 332 331 330 331 339 338 338
302 300 299 297 296 297 297 297 297 297 295 295 296 295 298 302 306 309 309 307 305 307 312 316 319 317 315 314 315 314 315 315 315 316 316 317 317 319 321 321 319 322 323 325 325 325 326 326 329 330 330 331 335 338
302 302 301 298 296 297 297 297 297 295 295 295 295 301 303 305 309 310 308 306 306 311 313 315 318 321 319 316 317 316 316 318 316 316 317 317 318 321 321 318 318 320 323 323 323 322 322 323 325 325 328 331 331 334
303 303 302 300 296 296 297 297 296 295 295 296 304 307 309 310 307 306 311 312 311 312 312 314 315 320 316 318 319 320 319 319 320 319 317 317 318 317 317 319 321 322 322 322 321 321 322 323 322 324 328 327 328 327
302 302 302 301 297 296 297 297 295 295 297 304 307 309 310 307 309 311 312 314 313 314 313 312 312 319 317 320 321 319 322 322 322 322 321 322 322 324 323 322 322 322 321 320 320 320 321 320 321 322 322 324 326 327
302 303 301 302 298 296 297 297 295 298 304 306 306 308 309 310 311 312 314 313 314 315 315 315 314 318 318 319 319 319 321 321 323 321 324 324 325 324 323 322 322 322 322 322 321 321 321 321 321 321 322 323 323 324
301 302 301 301 297 296 298 296 295 302 304 305 306 309 309 310 310 311 313 315 316 315 317 318 320 318 318 319 319 321 320 322 320 324 323 325 323 323 322 322 321 320 320 320 320 320 320 321 321 322 322 323 324 323
300 302 301 300 297 297 298 296 295 302 303 307 309 304 310 311 311 313 315 317 316 317 317 317 318 318 318 320 320 321 321 322 322 323 324 324 320 320 320 320 320 320 319 318 318 318 318 320 320 321 322 324 324 325
301 301 300 298 298 298 297 295 296 297 305 308 310 309 310 310 312 315 315 315 316 316 316 316 317 317 319 320 320 321 322 322 323 324 323 321 320 320 319 319 318 318 319 318 318 318 318 317 317 320 320 321 324 325
301 300 298 299 299 297 296 294 295 303 307 309 309 310 311 312 313 313 313 315 315 315 315 315 317 319 318 319 319 320 320 322 320 319 318 318 319 318 317 315 314 314 315 316 316 317 317 316 317 319 321 321 321 321
299 298 298 299 297 296 294 296 302 305 307 308 309 310 310 312 314 315 315 315 315 315 318 316 318 318 318 319 318 320 322 318 318 317 317 317 316 315 313 314 315 315 316 316 316 316 316 316 317 319 320 321 321 321
300 299 298 297 295 294 299 303 305 306 307 307 309 310 312 313 314 315 314 314 315 314 314 316 315 318 319 318 319 319 317 317 316 315 315 315 313 313 313 315 316 317 318 317 316 316 317 319 320 321 320 316 317 318
300 298 296 295 296 302 304 305 307 308 307 308 310 311 313 314 313 313 314 313 313 313 313 313 314 316 317 318 317 316 315 315 315 314 314 313 313 314 314 316 318 319 319 319 318 319 321 321 322 322 319 317 317 319
297 295 295 299 302 306 306 305 306 308 310 310 312 312 313 313 313 312 313 312 312 311 312 313 315 317 316 315 315 315 314 313 313 314 313 314 314 315 317 318 318 320 319 320 321 320 319 321 321 320 320 319 320 319
295 296 300 302 304 306 307 307 306 309 309 311 312 312 311 312 312 312 312 312 310 310 311 312 315 315 314 314 313 312 312 313 313 313 314 314 316 316 317 317 317 318 319 319 319 318 317 318 318 318 319 319 320 320
302 303 304 304 306 307 307 308 309 309 309 310 311 311 312 313 312 310 309 310 310 312 313 312 312 312 311 312 312 313 313 313 314 315 315 315 316 317 317 316 316 316 316 317 318 318 318 317 317 317 317 316 317 316
302 304 306 306 305 304 304 307 308 309 311 311 310 310 311 311 308 308 309 309 309 309 310 311 311 312 312 313 312 313 313 315 315 316 315 316 317 317 316 316 315 315 316 316 317 317 316 315 315 314 313 312 311 311
304 306 306 306 304 304 308 308 309 310 309 309 310 310 310 309 307 307 307 306 309 310 312 313 313 313 312 312 313 313 314 315 315 315 316 316 317 316 315 316 315 315 313 312 312 312 312 313 313 313 313 312 310 310
304 300 304 303 306 308 308 308 307 307 308 310 310 310 309 307 307 305 304 307 310 312 313 313 313 312 313 313 313 314 316 315 315 315 315 315 315 315 314 312 312 312 312 312 312 313 313 313 313 312 312 310 310 310
302 303 306 308 308 309 307 307 308 308 308 310 310 308 307 308 308 307 308 310 312 313 313 312 313 314 314 314 315 315 315 314 315 315 315 315 314 314 314 313 313 314 314 314 315 315 314 313 311 310 310 310 311 311
305 307 308 308 308 308 308 306 307 308 309 310 309 309 309 310 308 309 310 312 314 313 313 313 314 314 314 314 314 314 315 315 316 315 314 314 315 316 316 316 317 315 315 315 311 309 309 309 310 310 311 311 311 311
305 305 307 306 306 306 308 309 309 310 310 310 310 312 312 310 311 311 313 313 313 314 314 314 314 314 315 315 314 313 314 314 313 311 311 311 311 310 310 310 311 311 310 310 310 310 310 311 312 311 311 311 311 311
304 305 306 306 307 308 308 311 312 312 312 312 312 311 310 310 312 312 313 313 314 315 314 315 316 316 315 316 316 315 314 312 311 310 309 309 309 309 309 309 310 310 310 312 311 312 311 311 312 311 311 311 310 311
308 307 309 311 312 313 313 312 313 313 313 313 312 312 312 312 313 313 313 314 313 314 315 316 317 316 316 316 316 315 314 312 312 312 312 312 311 311 311 311 311 311 311 310 310 309 309 309 310 310 311 311 310 310
311 310 311 313 313 312 312 312 312 312 312 312 313 312 313 313 313 314 314 315 317 317 317 316 314 312 313 312 312 312 312 312 312 312 312 312 312 312 312 311 312 312 312 312 312 312 311 311 311 312 311 311 311 310
313 314 314 313 313 312 312 313 312 312 313 313 313 314 314 314 315 313 312 313 315 317 316 313 312 311 312 312 312 312 312 312 313 313 313 313 313 313 313 313 313 312 312 312 311 312 312 311 311 311 310 310 310 309
313 313 313 313 312 312 312 312 312 312 313 313 313 312 311 312 312 312 312 313 312 312 312 312 312 312 311 311 312 312 312 312 312 312 312 312 312 312 312 312 311 311 311 311 311 311 311 310 310 310 309 308 307 306
Wind_Speed
15 14 14 14 14 14 12 12 13 14 14 12 10 9 8 7 6 3 8 13 12 7 14 7 11 14 17 20 4 13 5 5 2 1 1 3 3 6 7 9 5 8 6 5 2 4 9 7 7 2 4 4 22 23
17 16 15 15 14 14 14 12 12 13 13 12 10 8 7 6 5 2 1 0 4 9 11 10 8 10 8 3 8 11 8 16 11 3 2 3 3 3 3 3 5 4 7 5 8 6 12 26 17 13 14 10 6 15
19 18 16 16 15 14 14 12 11 12 12 12 10 8 7 6 5 5 2 8 14 8 18 12 11 8 5 6 5 3 8 9 6 7 5 3 3 3 2 2 4 10 13 4 4 14 16 22 17 18 8 13 11 9
22 21 19 17 15 15 14 11 11 11 12 11 10 8 8 6 6 6 5 4 10 8 5 4 7 5 7 6 8 10 6 8 9 9 4 2 3 7 3 2 3 6 6 6 5 8 10 15 8 17 18 13 17 21
18 17 16 16 16 15 13 12 10 10 11 11 9 8 8 6 5 3 2 10 9 6 5 12 7 8 5 4 8 8 8 8 9 5 3 3 7 5 7 4 2 3 3 3 2 6 6 5 12 7 9 7 10 12
18 17 17 16 15 14 12 12 11 10 11 10 8 7 7 5 2 2 3 1 5 4 4 3 2 7 6 4 6 7 8 8 8 4 5 7 15 9 2 1 3 19 18 8 5 5 5 7 7 6 8 5 6 4
14 17 18 17 15 13 12 11 10 10 10 8 7 6 5 4 4 2 2 4 4 5 3 6 3 7 7 4 6 9 9 12 11 13 10 11 17 9 1 3 7 9 5 7 8 11 11 2 6 7 8 6 5 3
17 16 16 17 16 14 11 9 9 8 8 6 5 4 3 1 2 1 3 6 3 2 5 3 2 4 11 8 7 12 14 12 7 11 10 11 13 8 3 8 11 2 2 3 1 4 6 10 8 9 8 1 1 2
22 19 16 15 15 14 11 9 7 6 5 4 2 1 2 3 0 3 8 5 4 4 5 5 3 3 5 16 6 7 12 5 9 8 11 7 4 4 7 19 20 8 7 8 4 5 7 10 12 10 6 2 3 2
24 23 20 16 15 14 11 9 6 5 3 2 5 1 2 2 5 5 2 1 2 5 5 5 2 3 5 6 8 2 3 3 2 5 14 6 4 19 22 10 11 9 7 4 3 3 7 10 13 13 8 7 10 6
23 23 23 19 16 15 13 9 6 5 4 4 0 2 1 1 1 3 3 5 6 5 9 8 16 2 5 7 2 5 2 4 1 4 1 1 2 6 14 18 15 10 7 4 0 3 7 11 12 13 15 16 11 10
21 24 21 21 17 16 14 11 10 12 4 4 3 3 1 2 3 3 3 5 4 4 5 8 10 0 5 4 5 1 2 2 4 6 1 4 2 14 13 11 10 9 6 2 1 4 7 9 11 14 12 13 11 14
19 24 23 21 18 17 15 13 13 13 8 2 2 3 4 4 1 5 6 4 3 1 3 6 4 4 5 3 4 3 3 6 10 2 2 2 9 9 9 8 6 5 6 7 10 10 11 13 12 11 13 13 14 16
20 23 24 22 20 19 16 14 15 12 7 3 4 2 4 4 5 6 5 2 2 6 4 2 2 4 4 3 4 3 4 5 3 4 4 3 7 7 5 10 12 11 10 11 14 17 17 13 16 15 13 14 16 17
19 23 23 24 21 18 16 15 16 12 3 5 6 4 7 14 13 3 8 11 4 7 8 7 3 3 2 2 3 1 1 3 4 4 3 6 6 7 5 8 12 14 15 17 16 18 24 22 20 21 20 16 17 18
27 30 27 24 21 18 17 15 14 9 4 5 6 6 6 6 13 15 6 6 4 3 5 6 1 2 3 2 2 4 3 4 2 3 1 2 5 8 14 20 24 24 24 24 25 24 24 25 21 18 14 16 19 21
34 25 29 24 21 19 17 16 7 5 5 4 5 9 5 12 4 7 10 4 3 5 2 1 2 1 4 2 3 3 3 2 12 9 6 6 12 18 18 19 18 17 16 17 18 14 15 13 11 12 15 14 14 9
21 26 25 24 23 20 18 10 4 5 6 9 8 10 12 7 3 8 6 2 4 4 3 2 3 2 2 3 3 4 10 9 9 9 10 14 15 15 14 16 14 14 12 9 6 8 8 10 10 11 8 2 4 4
19 23 25 25 25 14 7 7 4 5 10 7 8 3 4 5 4 6 4 2 2 2 4 2 2 3 1 7 9 9 9 8 10 14 12 12 14 14 13 10 11 11 6 2 2 3 1 1 1 2 7 6 6 10
24 26 28 24 16 4 5 6 8 4 4 4 3 2 2 1 7 2 0 3 5 4 2 2 2 7 6 7 6 5 8 10 13 15 13 12 10 7 6 6 5 8 6 9 9 5 6 8 7 6 8 11 21 23
24 25 18 12 3 1 3 2 5 3 6 3 5 7 0 4 1 5 4 4 3 2 3 3 4 3 4 6 9 11 7 8 9 10 10 9 6 4 4 9 12 15 15 12 13 16 18 18 15 16 16 16 16 17
14 12 6 3 3 4 4 3 3 5 1 2 3 1 3 3 5 6 9 2 4 2 1 6 7 10 12 10 8 4 4 6 5 4 4 2 5 7 9 9 10 12 9 10 9 14 15 15 17 17 18 19 19 18
9 4 1 4 2 2 5 4 2 3 3 4 3 2 3 4 3 6 2 2 4 6 11 13 12 8 4 1 1 1 2 3 3 3 6 14 15 13 12 12 14 16 16 15 16 18 19 20 24 28 29 30 29 29
2 1 2 2 5 3 2 1 4 5 4 3 3 2 3 3 4 2 2 3 5 11 7 1 2 3 2 2 3 5 5 7 8 14 15 15 18 18 17 18 21 28 33 34 32 30 27 24 23 22 21 19 19 19
3 1 3 3 3 1 2 3 3 2 1 1 1 1 2 1 1 1 2 4 9 6 2 1 2 5 5 8 8 10 12 16 17 17 16 16 16 22 24 26 28 26 24 22 19 15 12 10 9 11 14 14 14 13
1 2 1 1 1 2 1 2 2 2 2 3 2 2 2 2 1 3 2 5 7 2 5 8 8 8 12 18 22 23 23 23 19 17 16 13 15 21 21 19 15 12 12 11 9 7 7 8 13 14 13 12 12 13
2 1 0 2 1 2 2 0 2 2 2 3 3 4 2 2 2 2 3 5 4 6 9 16 18 25 22 22 21 18 14 12 10 8 8 10 7 7 4 7 6 8 8 7 8 9 10 10 11 11 9 8 8 9
2 1 1 2 1 3 2 2 3 3 3 4 4 2 2 2 1 0 9 16 17 20 20 20 17 12 12 14 13 14 11 9 11 11 9 10 10 10 9 14 11 8 9 12 10 8 6 6 8 8 7 6 4 3
3 4 5 4 4 5 5 5 3 4 6 8 4 2 4 3 10 16 16 16 16 17 19 11 5 6 11 10 10 7 6 10 8 11 12 12 10 9 11 9 6 5 5 4 5 5 5 6 9 9 5 2 2 3
5 9 4 5 4 5 1 2 4 5 9 9 9 13 15 18 22 22 21 18 14 8 5 6 6 5 8 9 7 8 8 9 8 9 10 10 11 10 8 7 7 8 3 3 5 3 6 4 2 2 2 2 3 1
7 7 4 2 5 10 11 16 19 22 25 20 18 19 17 14 16 16 14 11 6 5 7 6 4 6 6 10 11 10 10 7 8 10 12 13 11 8 4 3 3 3 2 1 2 4 2 1 4 2 5 2 4 3
1 1 9 10 11 11 12 15 12 11 8 6 8 13 12 13 10 6 5 8 12 20 14 7 11 12 9 5 10 16 14 10 8 8 10 10 10 9 4 5 5 3 2 1 1 2 1 1 2 1 0 3 3 4
9 6 13 13 13 8 14 8 9 9 8 6 7 10 13 8 5 5 6 6 5 9 6 7 10 9 7 7 8 8 7 8 7 6 4 4 4 6 2 2 3 4 1 1 1 3 3 1 1 3 3 5 5 5
Wind_Direction
269 277 285 292 303 321 319 318 328 333 340 343 347 353 358 354 352 39 54 29 10 312 291 349 358 354 353 22 14 331 344 46 123 178 281 249 240 240 235 246 197 177 176 210 193 236 269 341 5 34 196 168 162 171
266 272 278 282 289 303 314 306 319 326 333 338 339 345 352 355 337 312 139 240 324 288 257 290 290 305 272 308 343 330 327 22 11 355 15 312 282 321 338 289 283 219 178 191 170 203 102 70 64 44 33 49 15 150
263 265 271 276 280 291 305 299 306 318 327 328 331 331 339 345 338 320 67 26 14 317 311 273 269 298 264 261 227 308 45 12 351 0 307 292 293 24 341 316 313 353 6 110 75 31 53 69 61 32 36 23 46 68
258 261 264 265 270 282 293 289 297 306 319 322 323 322 326 333 328 316 295 94 35 322 278 93 152 226 274 250 235 238 274 293 317 316 296 297 326 339 318 318 352 353 24 344 94 42 79 37 17 33 1 27 59 75
254 254 255 258 266 271 279 281 285 298 310 315 314 316 316 321 327 347 62 91 20 313 310 297 287 219 241 243 213 228 231 262 297 309 260 273 298 325 310 311 33 335 19 63 62 11 70 103 64 83 20 24 72 79
245 243 246 251 259 261 266 274 274 290 302 306 303 306 307 314 328 149 74 111 222 252 290 283 214 175 196 223 211 214 218 228 237 284 301 280 288 281 295 325 88 68 69 50 144 53 44 54 133 52 53 160 124 115
243 236 241 247 252 257 260 266 266 282 293 295 294 299 299 298 260 267 207 253 240 290 266 278 246 171 191 200 204 203 210 231 235 240 239 271 289 297 243 247 142 114 72 42 40 9 29 22 32 360 341 118 166 145
241 243 244 245 249 243 249 259 257 274 283 285 291 294 288 195 108 2 281 290 278 240 257 280 300 159 181 199 202 210 200 203 236 250 246 241 269 248 249 297 322 327 179 169 79 26 350 2 12 8 357 337 77 296
238 240 244 242 233 226 236 241 250 263 269 276 282 140 118 155 82 241 298 287 213 190 307 274 248 224 319 245 212 207 223 192 219 200 237 240 244 231 201 237 259 269 107 81 80 11 357 348 342 327 308 3 23 198
233 231 232 233 222 219 223 225 236 237 232 185 145 8 265 225 279 263 290 180 216 215 235 254 251 192 235 306 194 232 287 244 238 214 212 209 230 253 266 241 187 155 120 104 69 357 329 334 335 329 315 308 352 320
223 223 225 224 218 212 209 209 207 192 156 137 220 235 299 313 182 253 237 224 207 220 207 238 243 141 217 229 84 17 354 330 324 250 246 97 162 73 99 91 89 104 119 110 155 283 284 291 300 315 315 285 295 314
218 213 222 211 209 202 197 195 191 168 146 196 258 236 175 253 251 255 232 234 215 220 238 209 242 79 176 117 107 139 295 310 250 326 275 180 122 79 83 68 71 63 53 32 293 306 302 302 310 305 308 307 299 301
211 208 211 199 195 193 189 193 191 178 175 178 262 232 196 226 49 226 205 216 189 224 23 30 11 73 17 62 110 115 120 248 144 149 207 63 105 84 68 40 40 359 333 328 323 312 306 300 296 307 326 319 309 279
204 198 196 188 186 185 185 189 185 183 179 235 221 291 210 216 225 212 242 46 332 94 72 58 321 63 24 354 225 219 206 258 229 211 104 117 78 58 30 356 347 337 326 308 299 296 295 292 303 293 304 331 316 315
197 189 180 174 179 180 182 185 186 187 199 251 229 208 214 239 298 103 122 204 123 110 112 294 249 175 221 242 255 298 178 282 28 33 26 50 48 30 345 302 295 289 294 295 288 280 279 291 291 301 293 304 304 312
174 163 168 172 175 174 174 176 174 170 251 241 245 276 313 301 196 237 128 109 96 156 211 233 191 256 231 256 242 239 288 50 150 200 168 24 340 310 307 303 299 293 290 283 278 273 274 284 273 281 290 295 293 297
152 156 163 170 165 163 162 149 150 227 248 250 256 272 248 253 329 47 83 45 320 8 34 254 230 256 295 244 226 36 56 75 74 55 46 334 303 306 304 309 303 297 297 287 280 277 278 281 280 269 278 281 278 268
140 157 157 156 155 150 155 156 215 229 243 247 266 295 294 68 89 92 125 207 62 28 341 40 328 272 277 323 36 63 40 35 36 5 331 311 317 314 310 316 314 305 302 301 276 270 263 272 265 258 197 171 17 32
141 148 148 146 139 139 166 195 225 261 232 276 257 243 44 100 89 120 71 75 324 308 317 274 279 267 304 41 34 38 23 3 329 323 330 325 326 319 314 324 323 318 311 288 232 226 198 117 176 303 206 213 229 224
136 139 145 148 149 149 192 202 205 247 293 265 52 349 137 121 121 130 28 3 8 343 237 277 41 32 53 55 46 4 337 324 338 341 338 340 339 344 349 343 19 118 123 116 126 130 129 133 142 129 136 141 141 148
141 147 147 156 217 253 250 218 205 198 230 215 172 160 104 202 195 141 122 356 262 259 259 289 31 60 33 2 317 325 315 337 334 319 317 330 359 10 107 88 71 85 96 101 104 118 118 111 114 118 122 124 120 123
140 135 146 208 242 207 264 245 182 264 70 208 161 7 49 61 53 23 341 298 293 346 329 328 310 305 310 312 315 325 346 339 329 336 342 136 114 106 102 90 81 92 100 110 115 119 111 111 113 115 114 111 110 105
154 154 253 228 290 328 272 296 231 32 18 1 355 71 34 55 21 346 320 294 263 279 312 296 289 289 288 230 286 290 15 51 77 128 111 110 97 88 89 91 94 93 97 103 113 104 100 100 102 102 102 102 100 96
88 302 279 274 206 241 268 178 42 38 16 4 0 51 44 36 357 6 279 267 273 316 321 321 152 135 153 170 161 143 120 121 102 110 113 94 95 88 87 95 101 104 104 103 101 100 99 102 103 99 99 98 99 105
240 235 257 271 282 276 201 78 67 28 327 0 0 114 103 42 281 288 255 275 316 301 237 234 150 147 153 139 141 140 126 106 112 112 108 98 107 110 108 116 120 119 118 114 114 108 105 101 105 104 113 118 124 124
358 225 193 294 317 24 82 179 164 207 230 218 173 139 170 224 223 253 255 304 344 75 140 139 136 143 136 129 129 126 122 119 120 115 112 111 121 118 121 130 131 123 109 91 75 87 85 99 104 105 118 121 123 125
253 213 1 48 45 78 115 160 213 257 263 196 166 180 204 223 249 253 272 314 108 143 139 139 135 123 124 129 132 138 133 121 106 100 91 107 127 166 105 172 157 119 119 102 97 99 117 123 129 133 122 106 122 136
235 252 265 198 186 190 259 219 204 214 225 191 177 215 185 200 234 298 114 135 132 122 137 147 154 151 144 132 136 138 132 108 104 110 102 94 104 110 111 106 119 126 126 127 133 148 156 149 130 122 127 123 120 109
212 205 185 213 216 210 221 232 234 218 192 164 145 171 183 167 139 150 147 153 132 124 154 141 137 160 169 176 177 173 167 148 141 148 136 127 114 104 111 112 102 126 123 125 124 126 131 135 115 108 107 95 97 157
194 183 225 233 208 204 182 171 82 113 161 141 126 120 110 127 135 144 158 171 183 196 187 212 204 208 213 201 200 183 166 136 131 142 136 141 144 137 142 145 131 134 146 93 93 107 233 216 246 250 88 263 216 246
166 194 251 359 73 71 100 106 106 108 114 110 108 116 137 150 168 172 175 180 183 220 237 237 234 125 124 129 138 129 102 102 118 101 119 121 116 108 109 129 158 150 127 90 285 245 85 356 279 232 227 250 299 267
186 112 122 110 130 129 116 107 91 98 130 158 175 197 178 183 191 201 190 210 232 249 243 246 147 122 122 105 108 139 150 157 146 124 117 124 127 126 39 139 155 138 133 83 312 215 227 154 350 181 96 324 273 274
124 107 111 121 123 131 155 146 172 184 207 217 222 178 154 150 145 185 213 216 183 168 186 123 132 135 152 167 162 154 165 180 198 211 209 189 194 210 155 111 121 100 50 288 320 349 354 337 298 286 297 293 287 288